[[{"header":{"parameterUnit":"m.s-1","parameterCategory":2,"la1":30.2991,"la2":30.254,"lo1":-89.0895,"lo2":-89.0444,"dy":0.0017,"dx":0.0017,"nx":28,"ny":28,"refTime":"2023-08-07T21:00:00:Z","depth":"0","parameterNumber":2,"parameterNumberName":"U-component_of_CURRENTS"},"data":[0,0,0,0,0,0,0,0,0,0,0,0,0,0,0,0,0,0,0,0,0,0,0,0,0,0,0,0,0,0,0,0,0,0,0,0,0,0,0,0,0,0,0,0,0,0,0,0,0,0,0,0,0,0,0,0,0,0,0.2557,0.2557,0,0.2691,0.2694,0.2696,0.2765,0.2764,0.2764,0.2763,0.2868,0.2871,0.2875,0,0,0,0,0,0,0,0,0,0,0,0,0,0.2482,0.2483,0.2557,0.2557,0.2558,0.2691,0.2694,0.2696,0.2765,0.2764,0.2763,0.2763,0.2867,0.2871,0.2875,0,0,0,0,0,0,0,0,0,0,0,0,0,0.2564,0.2484,0.2556,0.2602,0.2607,0.269,0.2694,0.2697,0.2766,0.2764,0.2763,0.2762,0.2865,0.287,0.2876,0.2931,0,0,0.2892,0.2894,0,0,0,0,0,0,0,0,0.2559,0.2568,0.2594,0.2599,0.2604,0.2702,0.2706,0.2771,0.2766,0.2715,0.2763,0.2762,0.2804,0.2815,0.2856,0.2936,0.2941,0.2892,0.2895,0.2898,0.2899,0,0,0,0,0,0,0,0.2553,0.2563,0.2619,0.2595,0.2601,0.2657,0.2667,0.272,0.2771,0.2719,0.2722,0.2723,0.2808,0.2851,0.2859,0.2942,0.2892,0.2897,0.29,0.2902,0.311,0.3112,0,0,0,0,0,0,0.2513,0.2557,0.2615,0.2622,0.2568,0.2658,0.267,0.2679,0.2771,0.2782,0.2724,0.2725,0.2843,0.2853,0.2863,0.2961,0.2898,0.2902,0.2906,0.3108,0.311,0.3113,0,0,0,0,0,0,0.2511,0.2517,0.2609,0.2585,0.2599,0.2659,0.267,0.2682,0.2721,0.2773,0.2785,0.2746,0.2842,0.2855,0.2925,0.2963,0.2905,0.291,0.3105,0.3109,0.3112,0.3139,0,0,0,0,0,0,0.2509,0.2516,0.2523,0.2582,0.2599,0.2666,0.2671,0.2686,0.2718,0.2722,0.2797,0.2806,0.2842,0.2917,0.293,0.297,0.2914,0.3102,0.3106,0.3111,0.3135,0.3143,0.315,0,0,0,0,0,0.2506,0.2521,0.2523,0.253,0.2602,0.2667,0.2683,0.2727,0.272,0.2754,0.2803,0.2803,0.2954,0.2924,0.2938,0.298,0.31,0.3105,0.311,0.3132,0.3141,0.3149,0,0,0,0,0,0,0.2511,0.253,0.2533,0.2558,0.2606,0.2675,0.2707,0.2725,0.2794,0.2795,0.2836,0.2851,0.2937,0.2952,0.2917,0.3055,0.3027,0.3035,0.3038,0.3047,0.3055,0.3016,0.2918,0,0,0,0,0,0.2505,0.2511,0.2552,0.2574,0.2594,0.2647,0.2678,0.2708,0.2765,0.2794,0.2841,0.2898,0.2975,0.3,0.3073,0.3135,0.3159,0.3173,0.318,0.3186,0.3167,0.3263,0.3277,0.313,0.313,0.313,0,0,0.2506,0.2522,0.2523,0.2573,0.2614,0.2656,0.2667,0.2719,0.2752,0.2794,0.2863,0.2934,0.3003,0.3094,0.313,0.3103,0.3243,0.3193,0.3197,0.3175,0.327,0.3284,0.3296,0.3134,0.3133,0.3133,0,0,0.2525,0.2534,0.2549,0.2586,0.2635,0.267,0.2676,0.2746,0.2778,0.2845,0.2903,0.2987,0.3072,0.3149,0.3191,0.3276,0.3292,0.3301,0.3292,0.3386,0.3398,0.3409,0.346,0.3475,0.3288,0.3288,0.3288,0,0.2527,0.2554,0.2571,0.2607,0.2632,0.2666,0.2704,0.2749,0.2833,0.2869,0.2861,0.3041,0.3099,0.3223,0.3256,0.3291,0.333,0.325,0.3394,0.3405,0.3416,0.3465,0.3481,0.329,0.3289,0.3289,0.3289,0,0.2558,0.2588,0.2607,0.2646,0.2681,0.2724,0.2766,0.2811,0.2833,0.2883,0.2999,0.3091,0.3191,0.3236,0.3265,0.3388,0.3387,0.3406,0.3363,0.3432,0.348,0.3496,0.3292,0.3292,0.3291,0.3291,0,0,0.2543,0.2611,0.2618,0.2642,0.2703,0.2733,0.2784,0.2854,0.2894,0.2968,0.3035,0.3173,0.3221,0.3272,0.3344,0.3409,0.3526,0.3426,0.343,0.3459,0.3711,0.3668,0.3682,0.3575,0.3578,0.358,0.3714,0,0.2566,0.2628,0.2655,0.271,0.2744,0.2782,0.2828,0.2891,0.2943,0.3021,0.311,0.3211,0.3236,0.3297,0.3373,0.3507,0.357,0.3485,0.3652,0.3656,0.3598,0.37,0.353,0.3632,0.373,0.3732,0.3734,0,0.2587,0.2625,0.268,0.2741,0.2758,0.2786,0.2855,0.2905,0.3012,0.3059,0.3157,0.3232,0.3366,0.336,0.3575,0.3523,0.3608,0.3681,0.3689,0.3642,0.3645,0.3582,0.3658,0.3502,0.376,0.3758,0.3756,0,0.2565,0.2639,0.2675,0.2696,0.2772,0.2792,0.2827,0.2918,0.2963,0.3086,0.3134,0.3295,0.3375,0.3515,0.3652,0.3634,0.3858,0.3863,0.3896,0.3893,0.3773,0.3754,0.3699,0.3997,0.3996,0.3996,0.3996,0,0.2579,0.2609,0.2661,0.2682,0.2716,0.277,0.2817,0.288,0.2973,0.3041,0.3151,0.3231,0.3417,0.3557,0.3676,0.3835,0.389,0.3906,0.3938,0.3778,0.3759,0.3637,0.3582,0.4001,0.4,0.3999,0.3998,0,0.2563,0.2603,0.2638,0.2697,0.2708,0.2725,0.278,0.2821,0.2915,0.3003,0.3041,0.3208,0.3392,0.3559,0.3793,0.386,0.3916,0.4054,0.3828,0.3831,0.3699,0.3654,0.3591,0.3544,0.412,0.412,0.412,0,0.2574,0.2589,0.2623,0.2622,0.2642,0.2669,0.2691,0.278,0.2826,0.2988,0.3031,0.3213,0.3338,0.3638,0.3805,0.4006,0.3897,0.3938,0.3875,0.3672,0.3648,0.3538,0.3496,0.3732,0.3729,0.3726,0.3724,0,0.2571,0.2565,0.2576,0.2575,0.2579,0.26,0.2639,0.2665,0.2783,0.2859,0.2984,0.3091,0.3367,0.3496,0.3735,0.3839,0.3728,0.389,0.3754,0.3396,0.3201,0.3177,0.3637,0.3701,0.3703,0.3705,0.3706,0.3707,0.2533,0.252,0.2506,0.2504,0.2506,0.2511,0.25,0.2561,0.2614,0.2698,0.2872,0.2964,0.3165,0.3483,0.356,0.3529,0.3614,0.3454,0.3436,0.3359,0.3235,0.3622,0.3679,0.3681,0.3683,0.3684,0.3686,0,0.2449,0.2438,0.2436,0.2401,0.2373,0.2416,0.2444,0.2422,0.2439,0.2545,0.2639,0.2766,0.2883,0.3022,0.3123,0.3063,0.3002,0.2991,0.2765,0.2774,0.3172,0.307,0.2905,0.2905,0.2905,0.2906,0.2906,0.2906,0.2391,0.2343,0.2345,0.2268,0.2252,0.2184,0.2182,0.218,0.2219,0.2223,0.2251,0.2368,0.2549,0.2654,0.2595,0.2569,0.2428,0.2357,0.243,0.2633,0.2673,0.271,0.2597,0.2336,0.2336,0.1917,0.1913,0.191]},{"header":{"parameterUnit":"m.s-1","parameterCategory":2,"la1":30.2991,"la2":30.254,"lo1":-89.0895,"lo2":-89.0444,"dy":0.0017,"dx":0.0017,"nx":28,"ny":28,"refTime":"2023-08-07T21:00:00:Z","depth":"0","parameterNumber":3,"parameterNumberName":"V-component_of_CURRENTS"},"data":[0,0,0,0,0,0,0,0,0,0,0,0,0,0,0,0,0,0,0,0,0,0,0,0,0,0,0,0,0,0,0,0,0,0,0,0,0,0,0,0,0,0,0,0,0,0,0,0,0,0,0,0,0,0,0,0,0,0,0.0252,0.0251,0,0.0207,0.0206,0.0205,0.0137,0.0136,0.0135,0.0134,0.0041,0.004,0.0038,0,0,0,0,0,0,0,0,0,0,0,0,0,0.0171,0.0174,0.0252,0.0251,0.0251,0.0207,0.0206,0.0205,0.0137,0.0136,0.0135,0.0134,0.0042,0.004,0.0038,0,0,0,0,0,0,0,0,0,0,0,0,0,0.0171,0.0174,0.0252,0.0215,0.0211,0.0207,0.0206,0.0204,0.0137,0.0136,0.0134,0.0133,0.0042,0.004,0.0038,0.0048,0,0,0.003,0.0029,0,0,0,0,0,0,0,0,0.0171,0.0174,0.022,0.0217,0.0213,0.0179,0.0143,0.0151,0.0137,0.0161,0.0134,0.0133,0.0086,0.008,0.007,0.0044,0.004,0.003,0.0028,0.0027,0.0026,0,0,0,0,0,0,0,0.0172,0.0175,0.023,0.022,0.0216,0.0164,0.0163,0.0144,0.0128,0.0159,0.0155,0.0156,0.0083,0.0073,0.0067,0.0038,0.003,0.0028,0.0026,0.0025,0.0025,0.0027,0,0,0,0,0,0,0.0192,0.0176,0.0231,0.0229,0.0193,0.0167,0.0166,0.0188,0.0129,0.012,0.0158,0.0153,0.0077,0.007,0.0064,0.0082,0.0027,0.0025,0.0023,0.0024,0.0026,0.0027,0,0,0,0,0,0,0.0191,0.0199,0.0233,0.0202,0.0204,0.0171,0.0196,0.0188,0.0177,0.0129,0.0118,0.0155,0.0076,0.0067,0.006,0.0078,0.0024,0.0021,0.0022,0.0024,0.0027,0.0113,0,0,0,0,0,0,0.0189,0.0199,0.0221,0.0205,0.0206,0.0238,0.0198,0.0189,0.0182,0.0176,0.0124,0.0113,0.0074,0.0064,0.0057,0.0073,0.0019,0.002,0.0023,0.0026,0.0108,0.0118,0.0126,0,0,0,0,0,0.0187,0.0218,0.0223,0.0229,0.0239,0.0239,0.0235,0.0203,0.0184,0.0186,0.0157,0.0115,0.0077,0.0064,0.0055,0.0071,0.0019,0.0022,0.0026,0.0104,0.0116,0.0126,0,0,0,0,0,0,0.0186,0.0214,0.0219,0.0256,0.0255,0.0229,0.0227,0.0213,0.0193,0.0184,0.0135,0.0124,0.0124,0.0093,0.0079,0.0081,0.0041,0.0043,0.0104,0.0114,0.0123,0.0131,0.0017,0,0,0,0,0,0.0204,0.0239,0.0247,0.0276,0.0277,0.0257,0.0253,0.0238,0.0219,0.0208,0.0177,0.0148,0.0134,0.012,0.01,0.0102,0.0072,0.0108,0.0117,0.0125,0.0128,0.0112,0.012,0.0039,0.0038,0.0038,0,0,0.0213,0.0232,0.0252,0.0279,0.027,0.0278,0.0249,0.025,0.0258,0.0203,0.0201,0.018,0.0144,0.0146,0.0143,0.0119,0.0133,0.0129,0.0136,0.0134,0.0117,0.0124,0.0131,0.0041,0.004,0.004,0,0,0.0236,0.0264,0.0294,0.0299,0.0304,0.0296,0.0303,0.0292,0.0286,0.0291,0.0258,0.0256,0.0223,0.0209,0.0195,0.0246,0.0184,0.0235,0.028,0.0267,0.0273,0.0278,0.0251,0.0253,0.0235,0.0235,0.0235,0,0.024,0.0289,0.0298,0.0316,0.0324,0.0309,0.0328,0.0325,0.0314,0.0323,0.0299,0.0281,0.0254,0.0263,0.0281,0.0265,0.0239,0.0241,0.0278,0.0282,0.0286,0.0257,0.0258,0.024,0.0239,0.0239,0.0238,0,0.0278,0.0313,0.0325,0.0354,0.0362,0.0376,0.0379,0.0389,0.0383,0.0381,0.0394,0.0367,0.0353,0.0351,0.0328,0.0349,0.0316,0.0294,0.0249,0.0299,0.0265,0.0265,0.0246,0.0245,0.0243,0.0242,0,0,0.029,0.0346,0.0348,0.0375,0.0387,0.04,0.042,0.0443,0.0465,0.0455,0.0478,0.0469,0.0455,0.0441,0.0416,0.0408,0.0418,0.0366,0.0363,0.0337,0.0374,0.0353,0.0349,0.0397,0.0398,0.0398,0.034,0,0.0313,0.0372,0.0387,0.0431,0.046,0.0461,0.0486,0.0504,0.051,0.0529,0.0513,0.0521,0.0488,0.0486,0.0477,0.0435,0.042,0.0435,0.0331,0.0328,0.0301,0.035,0.0387,0.0339,0.034,0.0339,0.0339,0,0.0334,0.038,0.0436,0.0495,0.0506,0.0526,0.0569,0.059,0.061,0.0615,0.0615,0.0594,0.0591,0.0551,0.0499,0.0507,0.045,0.0411,0.0407,0.0355,0.0306,0.0289,0.0338,0.0263,0.0338,0.0338,0.0338,0,0.0341,0.0407,0.0463,0.048,0.054,0.0565,0.0591,0.0619,0.0648,0.0667,0.0682,0.0663,0.0654,0.0593,0.0519,0.0505,0.0451,0.0416,0.0339,0.0335,0.0332,0.0328,0.0294,0.0374,0.0374,0.0374,0.0375,0,0.0357,0.0397,0.0477,0.0505,0.0574,0.0598,0.0654,0.0678,0.0709,0.075,0.0728,0.0746,0.0665,0.0623,0.0542,0.0448,0.0465,0.0356,0.0327,0.0363,0.0363,0.0266,0.0219,0.0372,0.0373,0.0373,0.0373,0,0.0347,0.0397,0.0472,0.0556,0.0579,0.0629,0.0691,0.0729,0.0758,0.0805,0.0812,0.0805,0.0756,0.0666,0.0568,0.048,0.034,0.0348,0.0392,0.0369,0.0215,0.0172,0.0048,0.001,0.0247,0.0246,0.0245,0,0.0353,0.039,0.0503,0.0545,0.0582,0.0651,0.0692,0.0745,0.0784,0.0844,0.0868,0.0844,0.0845,0.0698,0.0544,0.0398,0.0316,0.032,0.0301,0.0223,0.0153,0.0084,0.0056,0.0327,0.0327,0.0327,0.0327,0,0.0368,0.0409,0.0474,0.0553,0.0614,0.0691,0.0754,0.0799,0.0863,0.0922,0.0984,0.0998,0.086,0.0752,0.055,0.044,0.0266,0.0313,0.0232,0.0217,0.0141,0.0087,0.0334,0.0328,0.0328,0.0328,0.0328,0.0328,0.0377,0.0424,0.0499,0.0567,0.0641,0.0727,0.0791,0.0865,0.0962,0.1074,0.1078,0.1148,0.0972,0.0709,0.0539,0.0266,0.0225,0.0195,0.0148,0.0083,0.0055,0.0295,0.0255,0.0255,0.0254,0.0254,0.0254,0,0.039,0.0435,0.0498,0.06,0.0672,0.0713,0.0826,0.0899,0.1026,0.1155,0.1239,0.1242,0.1008,0.0748,0.0363,0.0159,0.0066,0.0054,-0.0012,-0.0033,0.0193,0.0207,0.0158,0.0158,0.0158,0.0158,0.0158,0.0158,0.0404,0.0458,0.0486,0.06,0.0669,0.0778,0.0854,0.0973,0.1087,0.1276,0.138,0.1444,0.1301,0.0566,0.0118,0.0019,-0.0134,-0.0177,-0.0269,-0.0082,-0.0072,-0.0062,-0.0059,-0.0163,-0.0163,-0.0461,-0.0464,-0.0466]}],[{"header":{"parameterUnit":"m.s-1","parameterCategory":2,"la1":30.2991,"la2":30.254,"lo1":-89.0895,"lo2":-89.0444,"dy":0.0017,"dx":0.0017,"nx":28,"ny":28,"refTime":"2023-08-07T21:00:00:Z","depth":"2","parameterNumber":2,"parameterNumberName":"U-component_of_CURRENTS"},"data":[0,0,0,0,0,0,0,0,0,0,0,0,0,0,0,0,0,0,0,0,0,0,0,0,0,0,0,0,0,0,0,0,0,0,0,0,0,0,0,0,0,0,0,0,0,0,0,0,0,0,0,0,0,0,0,0,0,0,0.0973,0.0974,0,0.092,0.0917,0.0915,0.0962,0.0966,0.097,0.0974,0.1174,0.1176,0.1177,0,0,0,0,0,0,0,0,0,0,0,0,0,0.0796,0.0799,0.0973,0.0974,0.0976,0.092,0.0917,0.0914,0.0961,0.0966,0.0971,0.0976,0.1174,0.1176,0.1177,0,0,0,0,0,0,0,0,0,0,0,0,0,0.0797,0.08,0.0972,0.1012,0.1017,0.0921,0.0917,0.0913,0.096,0.0966,0.0973,0.0979,0.1173,0.1175,0.1177,0.1061,0,0,0.1183,0.1184,0,0,0,0,0,0,0,0,0.0797,0.0801,0.1004,0.1009,0.1015,0.0977,0.093,0.0984,0.0958,0.0954,0.0974,0.0982,0.1144,0.1148,0.1084,0.107,0.1079,0.1184,0.1185,0.1186,0.1186,0,0,0,0,0,0,0,0.0798,0.0802,0.0926,0.1006,0.1013,0.0925,0.0932,0.0935,0.0998,0.0955,0.0965,0.0998,0.1146,0.1081,0.109,0.1082,0.1184,0.1185,0.1187,0.1187,0.1316,0.1318,0,0,0,0,0,0,0.0866,0.0803,0.0928,0.0927,0.0949,0.0927,0.0933,0.0961,0.0993,0.1009,0.0992,0.1001,0.1075,0.1088,0.1098,0.1212,0.1186,0.1188,0.1189,0.1314,0.1317,0.1319,0,0,0,0,0,0,0.0862,0.0877,0.093,0.0884,0.0889,0.0928,0.0955,0.0957,0.097,0.1024,0.1041,0.1018,0.108,0.1096,0.1223,0.1213,0.1188,0.119,0.1311,0.1315,0.1318,0.1282,0,0,0,0,0,0,0.0857,0.0875,0.0918,0.0889,0.0895,0.0919,0.0952,0.0953,0.099,0.1,0.1049,0.1069,0.1086,0.1221,0.1225,0.1215,0.1192,0.1308,0.1313,0.1317,0.128,0.1284,0.1287,0,0,0,0,0,0.085,0.0843,0.0919,0.0937,0.0953,0.0921,0.0911,0.0941,0.0986,0.0975,0.1076,0.1072,0.125,0.1225,0.1229,0.1219,0.1306,0.1312,0.1316,0.1279,0.1283,0.1287,0,0,0,0,0,0,0.0747,0.085,0.0932,0.0954,0.0986,0.0941,0.0939,0.0963,0.1006,0.1064,0.1104,0.113,0.1228,0.1246,0.1217,0.1277,0.1272,0.1279,0.1242,0.1246,0.1249,0.1311,0.1193,0,0,0,0,0,0.0766,0.082,0.0887,0.0911,0.0939,0.0954,0.0953,0.0988,0.1028,0.1049,0.1091,0.1164,0.1222,0.1267,0.1308,0.1337,0.1375,0.1338,0.1341,0.1343,0.1403,0.1462,0.1475,0.1335,0.1335,0.1335,0,0,0.0802,0.0804,0.0885,0.0901,0.0923,0.0954,0.0962,0.0985,0.1032,0.107,0.1142,0.1178,0.1242,0.129,0.1331,0.1321,0.1394,0.1349,0.135,0.1411,0.1468,0.1481,0.1493,0.1339,0.1338,0.1338,0,0,0.0781,0.0841,0.0892,0.0903,0.0953,0.096,0.0994,0.1008,0.1048,0.1123,0.1174,0.124,0.1296,0.1329,0.1361,0.141,0.1413,0.1406,0.1458,0.1511,0.1523,0.1534,0.1548,0.1561,0.1398,0.1398,0.1398,0,0.0843,0.0859,0.0891,0.0881,0.0922,0.0984,0.1034,0.105,0.1109,0.1161,0.1181,0.1291,0.1314,0.1401,0.1422,0.141,0.1449,0.1422,0.1513,0.1525,0.1537,0.1549,0.1564,0.1397,0.1397,0.1398,0.1398,0,0.0851,0.0881,0.0875,0.0941,0.0959,0.0995,0.1071,0.112,0.1186,0.1214,0.1327,0.1357,0.1449,0.1412,0.144,0.1521,0.1519,0.1505,0.1491,0.1548,0.1557,0.1573,0.1396,0.1396,0.1396,0.1397,0,0,0.1012,0.0937,0.0951,0.0983,0.1007,0.1033,0.1116,0.121,0.1306,0.1345,0.1441,0.1495,0.1532,0.1578,0.158,0.1599,0.1659,0.1601,0.1604,0.1597,0.1774,0.162,0.1621,0.1667,0.1671,0.1674,0.1726,0,0.1064,0.1016,0.099,0.1057,0.1077,0.1142,0.1217,0.1306,0.1371,0.1462,0.1513,0.1604,0.1591,0.1643,0.1674,0.1678,0.1712,0.1647,0.1743,0.1746,0.1586,0.1639,0.1521,0.1548,0.1742,0.1744,0.1746,0,0.1106,0.1061,0.1089,0.1118,0.1159,0.1242,0.1395,0.147,0.1589,0.163,0.1722,0.1762,0.1842,0.1805,0.1888,0.1859,0.186,0.1828,0.1829,0.1729,0.1623,0.1539,0.1569,0.1772,0.177,0.1768,0.1767,0,0.1145,0.1145,0.1159,0.1173,0.123,0.1339,0.144,0.1557,0.1625,0.1766,0.1798,0.1916,0.1974,0.2019,0.2013,0.1972,0.2068,0.1987,0.1848,0.1834,0.1781,0.1756,0.2075,0.2075,0.2074,0.2074,0.2074,0,0.1161,0.1194,0.121,0.1243,0.1379,0.1422,0.1589,0.1693,0.1798,0.188,0.1933,0.2002,0.2039,0.209,0.2079,0.2029,0.2146,0.1896,0.1858,0.1756,0.173,0.1977,0.1965,0.2076,0.2076,0.2075,0.2075,0,0.1205,0.1158,0.1234,0.1348,0.1385,0.1535,0.1673,0.1779,0.1865,0.1968,0.2017,0.2088,0.2165,0.2171,0.2212,0.2081,0.2056,0.2018,0.1874,0.1815,0.1758,0.1744,0.1832,0.1828,0.1824,0.1821,0.1818,0,0.1219,0.1236,0.1352,0.1399,0.1483,0.1635,0.1728,0.1833,0.1892,0.202,0.2066,0.2169,0.2183,0.2152,0.2053,0.1985,0.2064,0.1747,0.1622,0.179,0.1744,0.1736,0.1728,0.1529,0.1524,0.152,0.1517,0,0.1306,0.1356,0.1423,0.1498,0.1611,0.1685,0.1821,0.1839,0.1953,0.2011,0.21,0.2122,0.2104,0.1953,0.1823,0.1758,0.1733,0.1651,0.1943,0.1575,0.1499,0.1454,0.1458,0.1481,0.1485,0.1487,0.1489,0.1491,0.1438,0.1497,0.1526,0.1614,0.1685,0.1711,0.1761,0.1824,0.1876,0.189,0.198,0.1917,0.1741,0.1472,0.1451,0.1467,0.1506,0.1353,0.1369,0.1388,0.1311,0.1228,0.1145,0.1147,0.1148,0.1149,0.115,0,0.1535,0.1532,0.1601,0.1643,0.1689,0.1732,0.1768,0.1735,0.1752,0.1775,0.1757,0.1388,0.1219,0.1239,0.1193,0.1053,0.1095,0.1022,0.1095,0.1126,0.1155,0.1072,0.084,0.084,0.084,0.084,0,0,0.1596,0.1589,0.1565,0.1568,0.1634,0.1627,0.1645,0.1591,0.1546,0.1416,0.1354,0.1128,0.1124,0.0906,0.0849,0.0929,0.1051,0.0899,0.1137,0.126,0.129,0.1314,0.1214,0,0,0,0,0]},{"header":{"parameterUnit":"m.s-1","parameterCategory":2,"la1":30.2991,"la2":30.254,"lo1":-89.0895,"lo2":-89.0444,"dy":0.0017,"dx":0.0017,"nx":28,"ny":28,"refTime":"2023-08-07T21:00:00:Z","depth":"2","parameterNumber":3,"parameterNumberName":"V-component_of_CURRENTS"},"data":[0,0,0,0,0,0,0,0,0,0,0,0,0,0,0,0,0,0,0,0,0,0,0,0,0,0,0,0,0,0,0,0,0,0,0,0,0,0,0,0,0,0,0,0,0,0,0,0,0,0,0,0,0,0,0,0,0,0,-0.0016,-0.0017,0,-0.0077,-0.0078,-0.0078,-0.0147,-0.0148,-0.015,-0.0151,-0.0309,-0.0312,-0.0315,0,0,0,0,0,0,0,0,0,0,0,0,0,0.0009,0.001,-0.0016,-0.0017,-0.0018,-0.0077,-0.0078,-0.0079,-0.0147,-0.0148,-0.015,-0.0151,-0.0308,-0.0311,-0.0315,0,0,0,0,0,0,0,0,0,0,0,0,0,-0.0019,0.001,-0.0016,-0.0061,-0.0066,-0.0077,-0.0078,-0.0079,-0.0147,-0.0148,-0.015,-0.0152,-0.0307,-0.0311,-0.0315,-0.0306,0,0,-0.0329,-0.0331,0,0,0,0,0,0,0,0,-0.0018,-0.002,-0.0053,-0.0058,-0.0063,-0.0109,-0.0127,-0.016,-0.0146,-0.0113,-0.0151,-0.0153,-0.0251,-0.026,-0.0263,-0.0314,-0.032,-0.033,-0.0333,-0.0335,-0.0336,0,0,0,0,0,0,0,-0.0015,-0.0018,-0.0038,-0.0054,-0.006,-0.009,-0.0095,-0.0133,-0.0171,-0.0116,-0.0122,-0.0132,-0.0255,-0.0258,-0.0267,-0.0323,-0.033,-0.0334,-0.0337,-0.0338,-0.0417,-0.0416,0,0,0,0,0,0,-0.0009,-0.0015,-0.0036,-0.004,-0.0048,-0.0089,-0.0095,-0.009,-0.0168,-0.0182,-0.0131,-0.0135,-0.0249,-0.0262,-0.0273,-0.0273,-0.0335,-0.0339,-0.0341,-0.0418,-0.0417,-0.0416,0,0,0,0,0,0,-0.0008,-0.0009,-0.0033,-0.0032,-0.0038,-0.0087,-0.0081,-0.009,-0.0115,-0.0179,-0.0194,-0.0149,-0.0251,-0.0267,-0.0291,-0.028,-0.0341,-0.0345,-0.0418,-0.0417,-0.0416,-0.0269,0,0,0,0,0,0,-0.0006,-0.0008,-0.0,-0.0031,-0.0038,-0.0031,-0.008,-0.009,-0.0119,-0.0126,-0.02,-0.0215,-0.0254,-0.0283,-0.0295,-0.0287,-0.0349,-0.0419,-0.0418,-0.0417,-0.0274,-0.0263,-0.0253,0,0,0,0,0,-0.0005,0.0029,0.0001,-0.0002,-0.0025,-0.003,-0.0035,-0.0077,-0.0118,-0.011,-0.0153,-0.0214,-0.0286,-0.0285,-0.03,-0.0293,-0.042,-0.0418,-0.0417,-0.0279,-0.0265,-0.0253,0,0,0,0,0,0,0.0067,0.0024,-0.0007,0.0017,-0.0009,-0.0043,-0.004,-0.008,-0.0107,-0.0122,-0.0191,-0.0206,-0.0226,-0.028,-0.0279,-0.0315,-0.037,-0.0371,-0.026,-0.0248,-0.0237,-0.0221,-0.0352,0,0,0,0,0,0.008,0.0083,0.004,0.0061,0.0044,-0.0006,-0.0017,-0.0047,-0.0078,-0.0094,-0.0143,-0.0197,-0.0226,-0.0253,-0.0288,-0.0302,-0.0344,-0.0314,-0.0303,-0.0293,-0.0291,-0.033,-0.0322,-0.0411,-0.0411,-0.0411,0,0,0.0096,0.0092,0.0081,0.0074,0.0046,0.0045,-0.0016,-0.0027,-0.0021,-0.0106,-0.0111,-0.0159,-0.0221,-0.0225,-0.0242,-0.0272,-0.0285,-0.0292,-0.0282,-0.0286,-0.0327,-0.0319,-0.0311,-0.041,-0.041,-0.0411,0,0,0.0156,0.0141,0.0151,0.0139,0.0109,0.0087,0.0079,0.0035,0.0019,0.0014,-0.0046,-0.0075,-0.0132,-0.0159,-0.0184,-0.0141,-0.0222,-0.0174,-0.0109,-0.0145,-0.0138,-0.0132,-0.0143,-0.014,-0.0173,-0.0173,-0.0173,0,0.0156,0.0197,0.0157,0.0178,0.0171,0.0105,0.0115,0.0106,0.0065,0.006,0.0027,-0.0039,-0.0093,-0.0098,-0.0082,-0.0115,-0.0148,-0.0145,-0.0128,-0.0124,-0.012,-0.0134,-0.0132,-0.0166,-0.0166,-0.0167,-0.0168,0,0.0224,0.0247,0.0262,0.0257,0.0254,0.0259,0.0226,0.0219,0.0184,0.0166,0.015,0.0096,0.0045,0.0028,-0.0013,-0.0018,-0.0052,-0.0101,-0.0152,-0.0101,-0.012,-0.012,-0.0155,-0.0158,-0.016,-0.0162,0,0,0.0209,0.028,0.0277,0.0293,0.0291,0.0287,0.0314,0.0309,0.0314,0.0284,0.0294,0.025,0.0195,0.0161,0.0098,0.0072,0.0081,-0.0002,-0.0007,0.0004,0.0016,0.0063,0.0066,0.0029,0.0029,0.0029,0.0005,0,0.0246,0.0321,0.0342,0.0384,0.0406,0.0377,0.0407,0.04,0.0389,0.0391,0.0342,0.032,0.0253,0.0218,0.019,0.0101,0.0081,0.0093,-0.0051,-0.0055,-0.0006,0.0067,0.0025,0.0005,0.0004,0.0004,0.0004,0,0.0273,0.0338,0.0395,0.0452,0.0449,0.0458,0.0469,0.0489,0.0494,0.0485,0.0464,0.0416,0.038,0.0305,0.0208,0.0214,0.0125,0.0064,0.006,0.0048,-0.0009,-0.0055,0.0004,0.0002,0.0002,0.0002,0.0002,0,0.0268,0.0351,0.0404,0.0419,0.0479,0.0481,0.049,0.0504,0.053,0.0528,0.0536,0.0492,0.0449,0.0355,0.0233,0.0206,0.0133,0.0073,0.0042,0.0044,-0.0048,-0.0053,0.0003,0.0003,0.0003,0.0003,0.0003,0,0.0287,0.0323,0.04,0.0421,0.0483,0.0491,0.0533,0.0539,0.0562,0.0605,0.0562,0.058,0.045,0.0396,0.0279,0.0185,0.0162,0.0077,0.0047,0.0007,0.0007,-0.0058,-0.0065,0.0002,0.0002,0.0002,0.0002,0,0.0262,0.0317,0.0386,0.0456,0.0482,0.0507,0.0564,0.0592,0.0602,0.0654,0.065,0.0634,0.0563,0.0455,0.0312,0.0243,0.0144,0.0103,0.009,0.0061,0.0068,0.0068,0.008,0.0082,0.0083,0.0084,0.0085,0,0.0251,0.0291,0.0397,0.0449,0.0477,0.0534,0.0575,0.0606,0.0644,0.0696,0.0719,0.0679,0.0689,0.0546,0.0373,0.0222,0.0172,0.0111,0.006,0.011,0.0078,0.0077,0.0076,-0.0007,-0.0007,-0.0007,-0.0006,0,0.0263,0.0293,0.0362,0.0454,0.0507,0.0604,0.0655,0.0705,0.0747,0.0805,0.0872,0.0892,0.0741,0.0584,0.0386,0.0282,0.0144,0.0113,0.0145,0.0003,0.0032,-0.0,0.0,-0.0006,-0.0006,-0.0006,-0.0006,-0.0006,0.0261,0.0308,0.0387,0.0466,0.0557,0.0662,0.0727,0.0798,0.0898,0.0964,0.0989,0.0985,0.0702,0.0445,0.0286,0.0149,0.0162,0.0077,0.0074,0.0071,0.0089,0.0121,0.0104,0.0104,0.0105,0.0105,0.0105,0,0.0278,0.0331,0.0399,0.0518,0.0609,0.0651,0.078,0.0853,0.0988,0.102,0.1089,0.0827,0.0641,0.0392,0.0181,0.0062,0.0021,0.0027,-0.0041,-0.004,-0.004,-0.0031,-0.0047,-0.0048,-0.0048,-0.0049,0,0,0.0302,0.0367,0.0395,0.0546,0.0622,0.0746,0.0827,0.0948,0.1015,0.1079,0.1034,0.0901,0.0621,0.0369,0.0167,0.0095,0.0079,0.0087,0.0221,0.0167,0.017,-0.0002,0.0016,0,0,0,0,0]}],[{"header":{"parameterUnit":"m.s-1","parameterCategory":2,"la1":30.2991,"la2":30.254,"lo1":-89.0895,"lo2":-89.0444,"dy":0.0017,"dx":0.0017,"nx":28,"ny":28,"refTime":"2023-08-07T21:00:00:Z","depth":"4","parameterNumber":2,"parameterNumberName":"U-component_of_CURRENTS"},"data":[0,0,0,0,0,0,0,0,0,0,0,0,0,0,0,0,0,0,0,0,0,0,0,0,0,0,0,0,0,0,0,0,0,0,0,0,0,0,0,0,0,0,0,0,0,0,0,0,0,0,0,0,0,0,0,0,0,0,-0.0588,-0.0589,0,-0.0674,-0.0675,-0.0676,-0.0775,-0.0776,-0.0778,-0.0779,-0.0873,-0.0874,-0.0875,0,0,0,0,0,0,0,0,0,0,0,0,0,-0.055,-0.055,-0.0588,-0.0589,-0.059,-0.0674,-0.0675,-0.0676,-0.0774,-0.0776,-0.0778,-0.0779,-0.0872,-0.0874,-0.0875,0,0,0,0,0,0,0,0,0,0,0,0,0,-0.0595,-0.055,-0.0588,-0.0648,-0.0654,-0.0674,-0.0675,-0.0677,-0.0774,-0.0776,-0.0778,-0.078,-0.0872,-0.0874,-0.0875,-0.0845,0,0,-0.0881,-0.0882,0,0,0,0,0,0,0,0,-0.0592,-0.0596,-0.0638,-0.0644,-0.0651,-0.0715,-0.0696,-0.0733,-0.0774,-0.073,-0.0779,-0.0781,-0.0819,-0.0825,-0.0838,-0.0849,-0.0853,-0.0881,-0.0882,-0.0883,-0.0884,0,0,0,0,0,0,0,-0.0589,-0.0593,-0.0623,-0.0639,-0.0647,-0.0686,-0.0694,-0.0704,-0.0762,-0.0734,-0.0741,-0.0748,-0.0823,-0.0836,-0.0841,-0.0854,-0.0881,-0.0883,-0.0884,-0.0885,-0.1029,-0.1032,0,0,0,0,0,0,-0.0572,-0.059,-0.062,-0.0625,-0.0625,-0.0684,-0.0694,-0.0693,-0.0762,-0.0774,-0.0746,-0.0753,-0.0832,-0.0838,-0.0844,-0.099,-0.0883,-0.0885,-0.0886,-0.1027,-0.103,-0.1033,0,0,0,0,0,0,-0.0571,-0.0573,-0.0617,-0.061,-0.0618,-0.0682,-0.0681,-0.0694,-0.0783,-0.0772,-0.0785,-0.0831,-0.0833,-0.0842,-0.0907,-0.0987,-0.0886,-0.0887,-0.1023,-0.1028,-0.1032,-0.1166,0,0,0,0,0,0,-0.0569,-0.0572,-0.0589,-0.0608,-0.0618,-0.0668,-0.0679,-0.0694,-0.0779,-0.079,-0.0846,-0.0853,-0.0836,-0.0904,-0.0908,-0.0988,-0.0889,-0.102,-0.1025,-0.103,-0.1158,-0.1174,-0.1188,0,0,0,0,0,-0.0567,-0.0577,-0.0589,-0.0595,-0.0631,-0.067,-0.068,-0.0733,-0.0782,-0.0823,-0.0863,-0.0856,-0.0941,-0.0907,-0.0912,-0.0994,-0.1017,-0.1024,-0.103,-0.1151,-0.1171,-0.1187,0,0,0,0,0,0,-0.0577,-0.0588,-0.0603,-0.0618,-0.066,-0.0687,-0.0736,-0.0777,-0.0843,-0.088,-0.0879,-0.0887,-0.0986,-0.0962,-0.0925,-0.105,-0.0983,-0.099,-0.1074,-0.1092,-0.1107,-0.1073,-0.089,0,0,0,0,0,-0.058,-0.06,-0.0616,-0.0644,-0.0667,-0.0719,-0.0755,-0.0797,-0.0843,-0.0881,-0.0924,-0.0965,-0.1001,-0.1026,-0.1054,-0.1107,-0.105,-0.1165,-0.1181,-0.1193,-0.1169,-0.1162,-0.1173,-0.1053,-0.1053,-0.1053,0,0,-0.0603,-0.0606,-0.0627,-0.065,-0.0693,-0.0723,-0.075,-0.083,-0.0868,-0.0875,-0.0977,-0.1032,-0.1031,-0.1104,-0.1145,-0.1101,-0.12,-0.1201,-0.1212,-0.118,-0.1169,-0.118,-0.119,-0.1058,-0.1057,-0.1056,0,0,-0.0636,-0.0657,-0.0681,-0.0705,-0.0765,-0.0787,-0.0828,-0.0902,-0.0954,-0.1041,-0.1066,-0.1155,-0.122,-0.1227,-0.1233,-0.134,-0.1292,-0.1386,-0.1423,-0.1419,-0.1427,-0.1434,-0.138,-0.1381,-0.138,-0.138,-0.138,0,-0.066,-0.0675,-0.0703,-0.0721,-0.0752,-0.0823,-0.0864,-0.0905,-0.1002,-0.1058,-0.1096,-0.1249,-0.1262,-0.1322,-0.1363,-0.1374,-0.1348,-0.1357,-0.1436,-0.1441,-0.1446,-0.1389,-0.1388,-0.1387,-0.1386,-0.1386,-0.1385,0,-0.0693,-0.0716,-0.0742,-0.0775,-0.0818,-0.0874,-0.0916,-0.1004,-0.1101,-0.1155,-0.1301,-0.134,-0.142,-0.1465,-0.1442,-0.151,-0.1474,-0.1468,-0.1384,-0.1466,-0.1401,-0.1398,-0.1398,-0.1395,-0.1393,-0.1391,0,0,-0.0719,-0.0752,-0.077,-0.0781,-0.0854,-0.0885,-0.097,-0.1055,-0.1134,-0.1263,-0.1368,-0.1459,-0.1532,-0.154,-0.1564,-0.1562,-0.1582,-0.1536,-0.1533,-0.1471,-0.1548,-0.1361,-0.1338,-0.1608,-0.1608,-0.1608,-0.1488,0,-0.0745,-0.076,-0.0795,-0.0848,-0.0859,-0.0943,-0.1015,-0.1112,-0.1212,-0.1328,-0.1416,-0.1521,-0.1537,-0.1609,-0.1619,-0.1594,-0.158,-0.1612,-0.1486,-0.148,-0.1295,-0.1331,-0.161,-0.1485,-0.1485,-0.1484,-0.1483,0,-0.0762,-0.0763,-0.0817,-0.0862,-0.089,-0.0975,-0.1114,-0.1188,-0.134,-0.1419,-0.1547,-0.1597,-0.1643,-0.1651,-0.162,-0.165,-0.1603,-0.1573,-0.1568,-0.1332,-0.1286,-0.1387,-0.1476,-0.1477,-0.1477,-0.1478,-0.1478,0,-0.0729,-0.0773,-0.082,-0.0836,-0.0921,-0.1029,-0.1129,-0.1281,-0.1346,-0.1502,-0.1551,-0.1637,-0.1665,-0.1654,-0.1587,-0.1611,-0.1528,-0.1541,-0.1324,-0.1309,-0.1453,-0.1446,-0.1506,-0.1506,-0.1507,-0.1507,-0.1507,0,-0.0702,-0.073,-0.0839,-0.0855,-0.0963,-0.1065,-0.1229,-0.1317,-0.1475,-0.1485,-0.1622,-0.1562,-0.1668,-0.1621,-0.1587,-0.1419,-0.1517,-0.1305,-0.1264,-0.1514,-0.1516,-0.1449,-0.1444,-0.1502,-0.1503,-0.1504,-0.1505,0,-0.0652,-0.0711,-0.076,-0.0894,-0.0951,-0.107,-0.1268,-0.1337,-0.1498,-0.1507,-0.1538,-0.1531,-0.1387,-0.1452,-0.1381,-0.1356,-0.1259,-0.1182,-0.1412,-0.1391,-0.1041,-0.1046,-0.0904,-0.0896,-0.089,-0.0884,-0.088,0,-0.0616,-0.0647,-0.0782,-0.0839,-0.0934,-0.1109,-0.1191,-0.1362,-0.1376,-0.1368,-0.1298,-0.1227,-0.1173,-0.0969,-0.1027,-0.0987,-0.0979,-0.0993,-0.1046,-0.1003,-0.098,-0.0994,-0.1006,-0.087,-0.0868,-0.0866,-0.0865,0,-0.0554,-0.0652,-0.0694,-0.08,-0.0914,-0.0961,-0.1077,-0.1069,-0.1151,-0.1263,-0.1016,-0.0943,-0.0773,-0.0728,-0.0759,-0.0713,-0.1034,-0.0925,-0.0939,-0.0988,-0.0961,-0.0946,-0.0966,-0.0842,-0.0845,-0.0848,-0.0849,0,-0.0548,-0.0573,-0.0658,-0.0745,-0.0825,-0.0781,-0.0863,-0.082,-0.0858,-0.0858,-0.0699,-0.0622,-0.0634,-0.0565,-0.0529,-0.0546,-0.0521,-0.0586,-0.0617,-0.0643,-0.0623,-0.0554,-0.0248,0,0,0,0,0,-0.0531,-0.0528,-0.0573,-0.0615,-0.0662,-0.0696,-0.0728,-0.0789,-0.0819,-0.0604,-0.0687,-0.0491,-0.0384,-0.0345,-0.0301,-0.0391,-0.0547,-0.0343,-0.0644,-0.0718,-0.0744,-0.0751,0,0,0,0,0,0,-0.0512,-0.0556,-0.053,-0.0471,-0.0467,-0.0466,-0.0478,-0.0486,-0.0404,-0.0444,-0.0381,-0.0457,-0.0367,-0.0382,-0.0277,-0.0285,-0.0465,-0.035,-0.0349,-0.0703,-0.0727,-0.0748,-0.0764,0,0,0,0,0]},{"header":{"parameterUnit":"m.s-1","parameterCategory":2,"la1":30.2991,"la2":30.254,"lo1":-89.0895,"lo2":-89.0444,"dy":0.0017,"dx":0.0017,"nx":28,"ny":28,"refTime":"2023-08-07T21:00:00:Z","depth":"4","parameterNumber":3,"parameterNumberName":"V-component_of_CURRENTS"},"data":[0,0,0,0,0,0,0,0,0,0,0,0,0,0,0,0,0,0,0,0,0,0,0,0,0,0,0,0,0,0,0,0,0,0,0,0,0,0,0,0,0,0,0,0,0,0,0,0,0,0,0,0,0,0,0,0,0,0,-0.015,-0.015,0,-0.0129,-0.0129,-0.0129,-0.0108,-0.0108,-0.0107,-0.0107,-0.01,-0.01,-0.01,0,0,0,0,0,0,0,0,0,0,0,0,0,-0.0132,-0.0133,-0.015,-0.015,-0.015,-0.013,-0.0129,-0.0129,-0.0108,-0.0108,-0.0107,-0.0107,-0.01,-0.01,-0.01,0,0,0,0,0,0,0,0,0,0,0,0,0,-0.013,-0.0133,-0.015,-0.0135,-0.0134,-0.013,-0.0129,-0.0129,-0.0108,-0.0108,-0.0107,-0.0106,-0.01,-0.01,-0.0101,-0.0116,0,0,-0.0102,-0.0102,0,0,0,0,0,0,0,0,-0.0131,-0.0131,-0.0138,-0.0136,-0.0134,-0.0119,-0.012,-0.0125,-0.0108,-0.012,-0.0107,-0.0106,-0.0107,-0.0107,-0.0107,-0.0115,-0.0115,-0.0102,-0.0102,-0.0102,-0.0102,0,0,0,0,0,0,0,-0.0131,-0.0132,-0.0144,-0.0138,-0.0135,-0.0116,-0.0116,-0.0121,-0.0119,-0.0119,-0.0117,-0.0112,-0.0106,-0.0106,-0.0106,-0.0115,-0.0102,-0.0102,-0.0102,-0.0102,-0.0137,-0.0138,0,0,0,0,0,0,-0.0133,-0.0132,-0.0144,-0.0143,-0.0129,-0.0117,-0.0116,-0.0126,-0.0118,-0.0116,-0.0113,-0.0111,-0.0106,-0.0106,-0.0106,-0.0099,-0.0102,-0.0102,-0.0102,-0.0137,-0.0138,-0.0138,0,0,0,0,0,0,-0.0133,-0.0135,-0.0145,-0.0135,-0.0134,-0.0118,-0.0129,-0.0126,-0.0119,-0.0113,-0.0111,-0.0108,-0.0106,-0.0105,-0.012,-0.0099,-0.0102,-0.0103,-0.0136,-0.0137,-0.0138,-0.0101,0,0,0,0,0,0,-0.0133,-0.0136,-0.0147,-0.0136,-0.0135,-0.0142,-0.0129,-0.0126,-0.0117,-0.0115,-0.0109,-0.0108,-0.0105,-0.0119,-0.012,-0.01,-0.0103,-0.0135,-0.0136,-0.0138,-0.0101,-0.01,-0.01,0,0,0,0,0,-0.0133,-0.0143,-0.0148,-0.0149,-0.0151,-0.0142,-0.014,-0.0126,-0.0117,-0.0117,-0.0122,-0.0108,-0.0128,-0.0121,-0.0121,-0.01,-0.0134,-0.0136,-0.0137,-0.0101,-0.0101,-0.01,0,0,0,0,0,0,-0.0134,-0.0141,-0.0146,-0.0157,-0.0152,-0.0137,-0.0133,-0.0126,-0.0129,-0.0128,-0.0122,-0.0122,-0.0121,-0.0131,-0.0123,-0.0119,-0.0127,-0.0129,-0.0099,-0.0098,-0.0098,-0.0106,-0.0103,0,0,0,0,0,-0.0143,-0.0162,-0.0154,-0.0168,-0.016,-0.0149,-0.0144,-0.0137,-0.0135,-0.0134,-0.013,-0.0133,-0.0131,-0.0131,-0.0135,-0.014,-0.013,-0.0129,-0.0128,-0.0128,-0.0138,-0.0095,-0.0091,-0.0144,-0.0144,-0.0144,0,0,-0.0144,-0.0156,-0.0163,-0.0171,-0.0163,-0.0172,-0.0144,-0.0137,-0.0152,-0.0135,-0.015,-0.013,-0.0134,-0.0133,-0.0133,-0.0135,-0.011,-0.013,-0.0128,-0.0139,-0.0096,-0.0091,-0.0086,-0.0145,-0.0145,-0.0144,0,0,-0.0159,-0.0167,-0.0183,-0.0184,-0.0181,-0.0182,-0.018,-0.0166,-0.0162,-0.0172,-0.0158,-0.014,-0.0144,-0.0137,-0.0135,-0.0143,-0.0107,-0.013,-0.0129,-0.0087,-0.0081,-0.0076,-0.0058,-0.0052,-0.0129,-0.0129,-0.0129,0,-0.0165,-0.0191,-0.0184,-0.0198,-0.0209,-0.019,-0.0209,-0.0205,-0.0202,-0.0204,-0.0179,-0.0158,-0.0151,-0.0143,-0.0133,-0.0138,-0.0109,-0.0122,-0.0082,-0.0077,-0.0072,-0.0055,-0.0048,-0.0128,-0.0128,-0.0128,-0.0128,0,-0.0183,-0.0211,-0.0214,-0.0245,-0.0255,-0.0264,-0.0263,-0.0267,-0.0255,-0.0246,-0.0222,-0.0189,-0.0171,-0.0153,-0.014,-0.0101,-0.0089,-0.0079,-0.0073,-0.0064,-0.0047,-0.0041,-0.0125,-0.0126,-0.0126,-0.0127,0,0,-0.0191,-0.0225,-0.0232,-0.0261,-0.0283,-0.0296,-0.0323,-0.0339,-0.0353,-0.0307,-0.0303,-0.0256,-0.0198,-0.0193,-0.0149,-0.0105,-0.0036,-0.0066,-0.0064,-0.0032,0.006,-0.0042,-0.0045,0.0008,0.0009,0.001,0.0059,0,-0.0214,-0.0262,-0.0278,-0.0336,-0.0358,-0.0369,-0.0404,-0.0417,-0.0403,-0.0392,-0.032,-0.0286,-0.0224,-0.0179,-0.0125,-0.0058,-0.0017,-0.0051,0.0029,0.003,-0.0046,-0.0041,0.0014,0.0063,0.0065,0.0066,0.0067,0,-0.0233,-0.0268,-0.0331,-0.0397,-0.0408,-0.0451,-0.0504,-0.0518,-0.0501,-0.0469,-0.04,-0.0337,-0.025,-0.0194,-0.0065,-0.0076,-0.0008,0.0042,0.0046,-0.0061,-0.006,0.0049,0.0078,0.0077,0.0076,0.0076,0.0075,0,-0.0253,-0.0311,-0.0377,-0.0396,-0.0461,-0.0504,-0.0529,-0.0547,-0.0553,-0.0491,-0.0468,-0.0361,-0.0293,-0.0178,-0.0064,-0.004,0.0058,0.0095,0.0056,0.005,0.0115,0.0109,0.0171,0.0171,0.0171,0.0171,0.0171,0,-0.0281,-0.0333,-0.0396,-0.043,-0.0513,-0.0532,-0.0598,-0.0597,-0.0583,-0.0573,-0.0483,-0.0443,-0.0276,-0.02,-0.0084,-0.001,0.0046,0.0046,0.0054,0.0126,0.0121,0.0119,0.0113,0.0172,0.0172,0.0172,0.0171,0,-0.0305,-0.0346,-0.0424,-0.0501,-0.0531,-0.0584,-0.0639,-0.0664,-0.0634,-0.061,-0.0574,-0.0489,-0.0391,-0.0278,-0.0121,-0.0065,0.0029,0.0035,0.0073,0.0085,0.0003,-0.0002,0.0014,0.0011,0.0009,0.0006,0.0004,0,-0.0329,-0.0369,-0.0472,-0.0528,-0.0575,-0.0642,-0.069,-0.0685,-0.0684,-0.0634,-0.0614,-0.0544,-0.0475,-0.0334,-0.0229,-0.0082,-0.0061,-0.0016,0.0025,-0.002,-0.0013,-0.0014,-0.0016,0.0,-0.0001,-0.0001,-0.0002,0,-0.0362,-0.0406,-0.0466,-0.0561,-0.0639,-0.071,-0.075,-0.0727,-0.0691,-0.0701,-0.0611,-0.0536,-0.048,-0.0359,-0.0286,-0.0165,-0.0038,-0.0043,-0.0035,0.0004,-0.0037,-0.0028,-0.0026,-0.0012,-0.001,-0.0009,-0.0009,0,-0.0394,-0.0438,-0.0503,-0.0577,-0.0676,-0.0709,-0.0737,-0.072,-0.0707,-0.0622,-0.0609,-0.0523,-0.0487,-0.0408,-0.0321,-0.025,-0.0209,-0.0141,-0.0127,-0.0116,-0.0183,-0.0256,-0.0297,0,0,0,0,0,-0.0412,-0.0432,-0.0502,-0.0571,-0.0658,-0.0689,-0.0749,-0.0754,-0.071,-0.0643,-0.0607,-0.0541,-0.0439,-0.0413,-0.0353,-0.0381,-0.0212,-0.0312,-0.0128,-0.0064,-0.0053,-0.0121,0,0,0,0,0,0,-0.0429,-0.0488,-0.048,-0.0523,-0.0548,-0.0627,-0.0644,-0.0631,-0.0587,-0.055,-0.0502,-0.0512,-0.0428,-0.0443,-0.0334,-0.0327,-0.0201,-0.0287,-0.0286,-0.007,-0.006,-0.0051,-0.0117,0,0,0,0,0]}]]